TimeCST,TemperatureF,Dew PointF,Humidity,Sea Level PressureIn,VisibilityMPH,Wind Direction,Wind SpeedMPH,Gust SpeedMPH,PrecipitationIn,Events,Conditions,WindDirDegrees,DateUTC
12:56 AM,14.0,6.8,73,30.22,10.0,SSW,4.6,-,N/A,,Clear,210,2013-01-15 06:56:00
1:56 AM,10.9,5.0,77,30.30,10.0,Calm,Calm,-,N/A,,Clear,0,2013-01-15 07:56:00
2:56 AM,12.0,6.1,77,30.30,10.0,SSW,5.8,-,N/A,,Clear,210,2013-01-15 08:56:00
3:56 AM,10.0,5.0,80,30.28,10.0,SSW,5.8,-,N/A,,Clear,200,2013-01-15 09:56:00
4:56 AM,10.0,5.0,80,30.27,10.0,SW,4.6,-,N/A,,Clear,220,2013-01-15 10:56:00
5:56 AM,10.0,6.1,84,30.25,10.0,SSW,6.9,-,N/A,,Clear,200,2013-01-15 11:56:00
6:56 AM,10.0,6.1,84,30.26,10.0,SSW,5.8,-,N/A,,Clear,200,2013-01-15 12:56:00
7:56 AM,10.0,7.0,87,30.26,10.0,SSW,6.9,-,N/A,,Clear,200,2013-01-15 13:56:00
8:56 AM,12.9,9.0,84,30.26,10.0,SSW,8.1,-,N/A,,Clear,200,2013-01-15 14:56:00
9:56 AM,18.0,12.0,78,30.23,10.0,SSW,11.5,-,N/A,,Clear,200,2013-01-15 15:56:00
10:56 AM,19.9,10.9,68,30.22,10.0,SSW,12.7,-,N/A,,Clear,210,2013-01-15 16:56:00
11:56 AM,23.0,10.9,60,30.19,10.0,SW,10.4,-,N/A,,Clear,220,2013-01-15 17:56:00
12:56 PM,25.0,10.9,55,30.15,10.0,SSW,10.4,23.0,N/A,,Clear,210,2013-01-15 18:56:00
1:56 PM,27.0,10.9,51,30.13,10.0,SSW,10.4,-,N/A,,Clear,210,2013-01-15 19:56:00
2:56 PM,28.0,9.0,45,30.11,10.0,SSW,10.4,-,N/A,,Clear,210,2013-01-15 20:56:00
3:56 PM,28.0,7.0,41,30.10,10.0,SW,10.4,19.6,N/A,,Clear,220,2013-01-15 21:56:00
4:56 PM,27.0,8.1,45,30.10,10.0,SW,5.8,-,N/A,,Clear,220,2013-01-15 22:56:00
5:56 PM,25.0,8.1,49,30.08,10.0,SSW,6.9,-,N/A,,Clear,200,2013-01-15 23:56:00
6:56 PM,21.0,9.0,60,30.06,10.0,South,6.9,-,N/A,,Clear,190,2013-01-16 00:56:00
7:56 PM,24.1,9.0,53,30.04,10.0,SSW,9.2,-,N/A,,Clear,200,2013-01-16 01:56:00
8:56 PM,21.9,9.0,58,29.99,10.0,SSW,8.1,-,N/A,,Clear,200,2013-01-16 02:56:00
9:56 PM,21.0,9.0,60,29.97,10.0,SSW,8.1,-,N/A,,Clear,210,2013-01-16 03:56:00
10:56 PM,21.9,10.0,60,29.93,10.0,SSW,11.5,-,N/A,,Overcast,210,2013-01-16 04:56:00
11:56 PM,23.0,12.0,63,29.89,10.0,SSW,12.7,-,N/A,,Overcast,210,2013-01-16 05:56:00